Location: Newark
(35.2161°N, 26.1013°E)
Time: 01:28:56
(UTC+00:00)

DX 1 - Visible Passes

Search period start: 19 January 2020 00:00
Search period end: 29 January 2020 00:00
Orbit: 620 x 630 km, 98.4° (Epoch: 18 January)

Date Brightness Start Highest point End Pass type
(mag) Time Alt. Az. Time Alt. Az. Time Alt. Az.
20 Jan ? 16:01:55 10° N 16:05:44 30° WNW 16:09:30 10° SW visible
21 Jan ? 16:21:19 10° NNW 16:24:23 19° WNW 16:27:27 10° WSW visible
22 Jan ? 16:41:21 10° NW 16:43:00 12° WNW 16:44:38 10° W visible
25 Jan ? 15:59:46 10° N 16:03:39 32° WNW 16:07:32 10° SW visible
26 Jan ? 16:19:06 10° NNW 16:22:20 21° WNW 16:25:33 10° WSW visible
27 Jan ? 16:38:57 10° NW 16:40:57 13° WNW 16:42:57 10° W visible
